Home > Weather > Buenos Aires > Past weeks

Flag for Argentina Past Weather in Buenos Aires, Argentina — Yesterday and Last 2 Weeks

Now
59 °F

Partly cloudy.


Feels Like: 55 °F
Forecast: 57 / 60 °F
Wind: 21 mph from Southeast

Location: Buenos Aires Airport

Current Time: May 29, 2016 at 6:42:38 AM

Latest Report: May 29, 2016 at 6:00 AM


Visibility: 6 mi

Pressure: 30.09 "Hg

Humidity: 94%

Dew Point: 57 °F

Location of Buenos AiresLocation

Past Weather in Buenos Aires — Graph

°F

Buenos Aires Temperature Yesterday

Maximum temperature yesterday: 59 °F (at 11:00 AM)
Minimum temperature yesterday: 55 °F (at 12:00 AM)
Average temperature yesterday: 56 °F

High & Low Weather Summary for the Past Weeks

 TemperatureHumidityPressure
High59 °F (May 15, 12:00 AM)100% (May 14, 12:00 PM)30.39 "Hg (May 14, 12:00 PM)
Low46 °F (May 17, 3:00 AM)41% (May 17, 4:00 PM)29.86 "Hg (May 15, 5:00 AM)
Average54 °F77%30.22 "Hg
* Reported May 14 5:00 AM — May 29 5:00 AM, Buenos Aires, Weather by CustomWeather, © 2016

Note: Actual official high and low records may vary slightly from our data, if they occured in-between our weather recording intervals... More about our weather records

Advertising

Buenos Aires Weather History for the Previous 24 Hours

Scroll right to see more
 ConditionsComfort  
Time TempWeatherWind HumidityBarometerVisibility
5:00 AM
Sun, May 29
59 °FPassing clouds.16 mph94%30.09 "Hg6 mi
4:00 AM59 °FPassing clouds.17 mph94%30.12 "Hg6 mi
3:00 AM57 °FPassing clouds.16 mph100%30.15 "HgN/A
2:00 AM57 °FPassing clouds.13 mph94%30.15 "HgN/A
1:00 AM57 °FPassing clouds.16 mph94%30.18 "HgN/A
12:00 AM57 °FPassing clouds.17 mph94%30.21 "Hg3 mi
11:00 PM
Sat, May 28
55 °FPassing clouds.18 mph100%30.21 "Hg2 mi
10:00 PM57 °FPassing clouds.13 mph88%30.24 "Hg1 mi
9:00 PM55 °FPassing clouds.14 mph100%30.27 "Hg1 mi
8:00 PM55 °FPassing clouds.16 mph100%30.27 "Hg1 mi
7:00 PM55 °FPassing clouds.15 mph94%30.27 "Hg2 mi
6:00 PM55 °FPassing clouds.17 mph100%30.30 "Hg2 mi
5:00 PM55 °FDrizzle. Overcast.23 mph100%30.30 "Hg3 mi
4:18 PM55 °FMore clouds than sun.18 mph100%30.30 "Hg5 mi
4:00 PM55 °FDrizzle. More clouds than sun.21 mph94%30.30 "Hg1 mi
3:00 PM57 °FMore clouds than sun.21 mph88%30.30 "Hg1 mi
2:00 PM59 °FPartly sunny.17 mph82%30.33 "HgN/A
1:00 PM59 °FPartly sunny.18 mph82%30.33 "HgN/A
12:00 PM59 °FMore clouds than sun.20 mph82%30.36 "HgN/A
11:00 AM59 °FPartly sunny.20 mph82%30.39 "HgN/A
10:00 AM57 °FBroken clouds.16 mph88%30.39 "HgN/A
9:00 AM55 °FBroken clouds.14 mph88%30.39 "HgN/A
8:00 AM55 °FSunny.12 mph88%30.39 "Hg10 mi
7:00 AM55 °FSunny.12 mph88%30.36 "Hg10 mi
6:00 AM55 °FPartly cloudy.10 mph88%30.36 "HgN/A
Weather by CustomWeather, © 2016

See weather overviewHow to use our weather pages